Weather in Hlynsk

Ukraine / Kirovohrad Region     48°57′13″N   32°54′05″E
temp.,
°C
wind,
m/s
gust,
m/s
humid.,
%
clouds,
%
prec.,
mm/h
press.,
hPa
HPBL,
m
13 april, tue
tue1300:00+10s2380100 0.0 102163
03:00+9sse2383100 0.0 102180
06:00+9se2385100 0.0 102162
09:00+10se348089 0.0 1021411
12:00+13sse356497 0.1 10201121
15:00+13s4564100 0.1 1019887
18:00+13s3467100 0.1 1019356
21:00+11ssw2578100 0.1 1019177
14 april, wed
wed1400:00+10s3582100 0.0 1018188
03:00+9s2281100 0.0 101871
06:00+9s228292 0.0 101737
09:00+11s237568 0.0 1017445
12:00+14sse345647 0.0 10161371
15:00+15ssw1350100 0.1 10151422
18:00+14sse236151 0.1 1014764
21:00+12ese356098 0.2 101477
15 april, thu
thu1500:00+10sse4968100 0.0 1014243
03:00+8se3877100 0.0 1013264
06:00+8ese3583100 0.0 1013166
09:00+8ese4788100 0.3 1013364
12:00+10se5783100 0.3 1012643
15:00+10se5886100 1.9 1012594
18:00+10s4773100 0.3 1011787
21:00
16 april, fri
fri1600:00+8sse4792100 0.1 1011402
03:00+7s5791100 0.2 1011471
06:00+6s588692 0.1 1011459
09:00+6s4685100 0.1 1011681
12:00+6sse5689100 0.3 1012895
15:00+4s5895100 0.9 1013777
18:00+4s5796100 0.6 1014643
21:00+6sse127929 0.1 1016103
17 april, sat
sat1700:00+4s3697100 0.6 1015607
03:00+4s3697100 1.4 1016651
06:00+4sse2497100 1.0 1017638
09:00+5sse2394100 1.3 1018516
12:00+7se1277100 0.1 1019687
15:00+8ne337479 0.3 1020615
18:00+9nne337117 0.0 1020516
21:00+7nnw228096 0.0 102150